Weather History for San Jose, Costa Rica

Change the Weather History Date:

Tuesday, July 22, 2014

  Actual Average Record
Temperature  
Mean Temperature 76 °F -  
Max Temperature 82 °F 80 °F 86 °F (1997)
Min Temperature 69 °F 64 °F 62 °F (2005)
Cooling Degree Days 10    
Growing Degree Days 26 (Base 50)    
Moisture  
Dew Point 62 °F    
Average Humidity 65    
Maximum Humidity 78    
Minimum Humidity 40    
Precipitation  
Precipitation 0.08 in 0.33 in - ()
Sea Level Pressure  
Sea Level Pressure 29.94 in    
Wind  
Wind Speed 11 mph ()    
Max Wind Speed 18 mph    
Max Gust Speed 28 mph    
Visibility 7.9 miles    
Events Rain    
Averages and records for this station are not official NWS values.
T = Trace of Precipitation, MM = Missing Value Source: Averaged Metar Reports

Daily Weather History Graph

Daily Weather History Graph

Search for Another Location

Airport:

Trip Planner

Search our weather history database for the weather conditions in past years. The results will help you decide how hot, cold, wet, or windy it might be!

Date:

Astronomy

Jul. 22, 2014 Rise Set
Actual Time 5:24 AM CST 6:01 PM CST
Civil Twilight 5:02 AM CST 6:24 PM CST
Nautical Twilight 4:35 AM CST 6:50 PM CST
Astronomical Twilight 4:09 AM CST 7:17 PM CST
Moon 1:50 AM CST (7/22) 2:42 PM CST (7/22)
Length of Visible Light 13h 21m
Length of Day
12h 36m
Waning Crescent, 16% of the Moon is Illuminated
Jul 22
Waning Crescent
Jul 26
New
Aug 3
First Quarter
Aug 10
Full
Aug 17
Last Quarter

Hourly Weather History & Observations

Time (CST) Temp. Heat Index Dew Point Humidity Pressure Visibility Wind Dir Wind Speed Gust Speed Precip Events Conditions
12:00 AM 72 °F - - %  in 12 mi East 11.5 mph - -  
12:00 AM 71.6 °F - 62.6 °F 73% 29.98 in 6.2 mi East 11.5 mph 23.0 mph N/A   Partly Cloudy
1:00 AM 71.6 °F - 62.6 °F 73% 29.96 in 6.2 mi East 17.3 mph - N/A   Partly Cloudy
2:00 AM 71.6 °F - 62.6 °F 73% 29.95 in 6.2 mi East 17.3 mph - N/A   Partly Cloudy
3:00 AM 72 °F - 62 °F 64% 29.78 in 12 mi East 18.4 mph - -   Scattered Clouds
3:00 AM 73.4 °F - 62.6 °F 69% 29.96 in 6.2 mi East 18.4 mph - N/A   Partly Cloudy
4:00 AM 71.6 °F - 60.8 °F 69% 29.94 in 6.2 mi ESE 12.7 mph - N/A   Partly Cloudy
5:00 AM 73.4 °F - 60.8 °F 65% 29.94 in 6.2 mi East 11.5 mph - N/A   Partly Cloudy
6:00 AM 72 °F - - %  in 12 mi ENE 11.5 mph - -  
6:00 AM 71.6 °F - 62.6 °F 73% 29.98 in 6.2 mi ENE 11.5 mph - N/A   Scattered Clouds
7:00 AM 71.6 °F - 62.6 °F 73% 29.99 in 6.2 mi ESE 11.5 mph - N/A   Scattered Clouds
7:45 AM 71.6 °F - 62.6 °F 73% 30.00 in 6.2 mi ESE 10.4 mph - N/A Rain Rain
8:00 AM 69.8 °F - 62.6 °F 78% 30.01 in 6.2 mi ESE 12.7 mph - N/A Rain Rain
9:00 AM 71 °F - 63 °F 70% 29.89 in 12 mi ENE 8.1 mph - -   Scattered Clouds
9:00 AM 71.6 °F - 62.6 °F 73% 30.02 in 6.2 mi ENE 8.1 mph - N/A   Mostly Cloudy
10:00 AM 73.4 °F - 64.4 °F 73% 30.00 in 6.2 mi East 10.4 mph - N/A   Mostly Cloudy
11:00 AM 77.0 °F - 64.4 °F 65% 29.97 in 6.2 mi ESE 15.0 mph 27.6 mph N/A   Mostly Cloudy
12:00 PM 81 °F - 62 °F 43% 29.80 in 12 mi East 12.7 mph - -   Scattered Clouds
12:00 PM 80.6 °F 81.8 °F 62.6 °F 54% 29.96 in 6.2 mi East 12.7 mph - N/A   Mostly Cloudy
1:00 PM 78.8 °F - 59.0 °F 51% 29.96 in 6.2 mi East 12.7 mph - N/A   Mostly Cloudy
2:00 PM 78.8 °F - 60.8 °F 54% 29.94 in 6.2 mi East 16.1 mph - N/A   Mostly Cloudy
3:00 PM 81 °F - 61 °F 40% 29.74 in 12 mi East 15.0 mph - -   Scattered Clouds
3:00 PM 80.6 °F 81.5 °F 60.8 °F 51% 29.92 in 6.2 mi East 15.0 mph - N/A   Mostly Cloudy
4:00 PM 78.8 °F - 60.8 °F 54% 29.93 in 6.2 mi East 11.5 mph - N/A   Mostly Cloudy
5:00 PM 78.8 °F - 69.8 °F 74% 29.94 in 6.2 mi ESE 6.9 mph - N/A   Mostly Cloudy
6:00 PM 75 °F - 61 °F 52% 29.83 in 12 mi East 8.1 mph - -   Scattered Clouds
6:00 PM 75.2 °F - 60.8 °F 61% 29.96 in 6.2 mi East 8.1 mph - N/A   Mostly Cloudy
7:00 PM 73.4 °F - 60.8 °F 65% 29.99 in - ESE 8.1 mph - N/A   Clear
8:00 PM 73.4 °F - 60.8 °F 65% 29.99 in - ESE 10.4 mph - N/A   Clear
9:00 PM 73 °F - 62 °F 61% 29.87 in 12 mi East 9.2 mph - -   Mostly Cloudy
9:00 PM 73.4 °F - 62.6 °F 69% 30.00 in - East 9.2 mph - N/A   Clear
10:00 PM 71.6 °F - 62.6 °F 73% 29.98 in - East 12.7 mph - N/A   Clear
11:00 PM 71.6 °F - 62.6 °F 73% 29.99 in - East 9.2 mph - N/A   Clear